SCP
0 0 0 0 0 0 -0 0 0 -0 -0 0 0 0 0 0 -0 0 -0 -0 0 0 0 0 0 0 0 0 0 0 0 0 0 0 0 0 0 -0 0 0 0 0 0 0
0 0 0 0 0 0 0 0 0 -0 0 0 0 0 0 0 0 0 0 0 0 0 0 0 0 0 0 0 0 0 0 0 0 0 0 0 0 0 0 0 0 0 0 0
0 0 0 0 0 0 0 0 0 0 0 0 0 0 0 0 0 0 0 0 0 0 0 0 0 0 0 0 0 0 0 0 0 0 0 0 0 0 0 0 0 0 0 0
0 0 0 0 0 0 0 0 0 0 0 0 0 0 0 0 0 0 0 0 0 0 0 0 0 0 0 0 0 0 0 0 0 0 0 0 0 0 0 0 0 0 0 0
0 0 0 0 0 0 0 0 0 0 0 0 0 0 0 0 0 0 0 0 0 0 0 0 0 0 0 0 0 0 0 0 0 0 0 0 0 0 0 0 0 0 0 0
0 0 0 0 0 0 0 0 0 0 0 0 0 0 0 0 -0 0 0 0 0 0 0 0 0 0 0 0 0 0 0 0 0 0 0 0 0 0 0 0 0 0 0 0
0 0 0 0 0 0 0 0 0 0 0 0 0 0 0 0 -0 0 0 0 0 0 0 0 0 0 0 0 0 0 0 0 0 0 0 0 0 0 0 0 0 0 0 0
0 0 0 0 0 0 0 0 0 0 0 0 0 0 0 0 -0 0 0 0 0 0 0 0 0 0 0 0 0 0 0 0 0 0 0 0 0 0 0 0 0 0 -0 0
0 0 0 0 0 0 0 0 0 0 0 0 0 0 0 0 -0 -0 0 0 0 0 0 0 0 0 0 0 0 0 0 0 0 0 0 0 0 0 0 0 0 0 0 -0
0 0 0 0 0 0 0 0 0 0 0 0 0 0 0 0 0 -0 0 0 0 0 0 0 0 0 0 0 0 0 0 0 0 0 0 0 0 0 0 0 0 0 0 0
0 0 0 0 0 0 0 0 0 0 0 0 0 0 0 0 0 0 0 0 0 0 0 0 0 0 0 0 0 0 0 0 0 0 0 0 0 0 0 0 0 0 0 0
0 0 0 0 0 0 0 0 0 0 0 0 -0 0 -0 0 -0 0 0 0 0 0 0 0 0 0 0 0 0 0 0 0 0 0 0 0 0 0 0 0 0 0 0 0
0 0 0 0 0 0 0 0 0 0 0 0 0 0 0 0 -0 0 0 0 0 0 0 0 0 0 0 0 0 0 0 0 0 0 0 0 0 0 0 0 0 0 0 0
0 0 0 0 0 0 0 0 0 0 0 0 0 0 -0 0 0 0 0 0 0 0 0 0 0 0 0 0 0 0 0 0 0 0 0 0 0 0 0 0 0 0 0 0
0 0 0 0 0 0 0 0 0 0 0 0 0 -0 0 0 0 -0 0 0 0 0 0 0 0 0 0 0 0 0 0 0 0 0 0 0 0 0 0 0 0 0 0 0
0 0 0 0 0 0 0 0 0 0 0 0 0 0 0 0 0 -0 -0 0 0 0 0 0 0 0 0 0 0 0 0 0 -0 0 0 0 0 -0 0 0 0 -0 -0 -0
0 0 0 0 0 0 0 0 0 0 0 0 0 0 0 -0 0 0 0 0 0 0 0 0 0 0 0 0 0 0 0 0 0 0 0 0 -0 0 -0 0 -0 -0 -0 -0
0 0 0 0 0 -0 0 0 0 0 0 0 0 0 0 0 0 0 0 0 0 0 0 0 0 0 0 0 0 0 0 0 0 0 0 0 0 0 -0 -0 0 -0 -0 -0
0 0 0 0 0 0 0 0 0 0 0 0 0 0 0 0 0 0 0 0 0 0 0 0 0 0 0 0 0 0 0 0 0 -0 0 0 -0 -0 -0 -0 -0 -0 -0 -0
0 0 0 0 0 0 0 0 0 0 0 0 0 0 0 0 0 0 0 0 0 0 0 0 0 0 0 0 0 0 0 0 0 0 0 0 0 -0 -0 -0 -0 -0 -0 -0
0 0 0 0 0 0 0 0 0 0 0 0 0 0 -0 0 0 0 0 0 0 0 0 0 0 -0 0 0 0 0 0 0 0 0 0 0 -0 -0 -0 -0 -0 -0 -0 -0
0 0 0 0 0 0 0 0 0 0 0 0 0 0 0 0 0 0 0 0 0 0 0 0 0 0 0 0 0 0 0 0 0 0 0 0 0 0 -0 -0 -0 -0 -0 -0
0 0 0 0 0 0 0 0 0 0 0 0 0 0 0 0 0 0 -0 -0 -0 0 0 0 0 0 0 0 0 0 0 0 0 0 0 0 0 0 0 0 -0 -0 -0 -0
0 0 0 0 0 0 0 -0 -0 0 -0 -0 0 0 0 0 0 0 0 -0 0 0 0 0 0 0 0 0 0 0 0 0 0 -0 0 0 0 0 0 0 0 0 0 0
0 0 0 0 0 -0 -0 -0 -0 -0 -0 -0 0 0 0 0 -0 0 0 -0 0 -0 0 -0 -0 0 0 0 0 0 0 0 0 0 0 0 0 0 0 0 0 0 0 0
0 0 0 0 0 0 -0 -0 -0 -0 0 0 0 0 0 0 0 0 -0 0 0 0 -0 -0 -0 0 0 0 0 0 0 0 0 0 0 0 0 0 0 0 0 0 0 0
0 0 0 0 0 0 0 -0 -0 -0 -0 0 0 0 0 0 0 0 0 0 0 0 0 0 0 0 0 0 0 0 0 0 0 0 0 0 0 0 0 0 0 0 0 0
Wind_Speed_500mb
38 37 35 37 42 44 44 21 7 13 26 7 5 5 9 16 33 51 17 11 16 14 13 15 12 5 6 13 13 8 5 12 1 9 10 7 14 17 12 10 11 4 9 10
32 29 29 32 37 44 48 36 14 8 19 4 6 13 13 23 28 25 9 15 24 22 17 5 9 14 3 27 10 10 1 4 6 18 14 14 10 5 3 6 7 10 11 9
28 26 26 29 32 35 37 15 7 13 8 17 3 11 12 15 30 23 26 20 30 22 12 5 10 12 6 27 24 24 15 6 12 12 12 5 10 17 7 9 6 8 10 10
28 25 24 25 28 29 26 6 6 14 7 13 14 6 9 19 23 21 27 13 14 25 11 6 11 7 12 15 24 10 11 9 10 12 11 4 9 13 13 7 11 11 5 11
25 23 24 24 25 22 10 10 10 15 23 25 15 6 8 17 26 12 10 23 43 31 13 17 17 17 10 11 5 8 4 3 8 4 8 8 6 12 12 9 8 10 9 2
23 21 23 23 22 20 6 6 14 7 12 11 8 6 14 31 19 20 28 37 33 18 11 28 41 43 45 31 20 11 13 10 6 4 6 6 7 6 5 6 11 3 5 10
23 21 22 25 23 19 13 7 10 7 8 5 6 26 40 15 11 14 41 46 14 18 57 15 17 29 33 40 10 28 13 13 7 6 9 5 13 6 9 11 7 10 2 8
25 24 21 22 23 21 16 7 3 8 7 13 23 19 20 28 26 17 35 29 51 67 38 7 10 10 9 5 17 13 13 11 5 9 9 7 2 3 3 5 5 7 7 5
28 26 23 23 22 22 17 7 8 13 10 11 7 18 28 9 8 11 13 59 53 21 4 4 8 7 12 7 12 8 12 11 10 6 9 10 14 7 11 7 6 3 8 15
33 30 24 23 21 22 21 9 13 9 13 31 12 5 12 16 8 5 16 29 32 34 6 5 4 5 9 11 16 10 7 6 12 6 5 8 8 17 15 5 11 16 12 16
32 26 23 22 21 20 22 9 19 17 16 58 51 32 28 24 15 5 17 20 10 12 8 5 3 4 6 8 7 14 12 11 6 7 6 8 20 9 8 10 11 19 17 22
27 25 22 22 20 18 16 20 18 25 25 37 42 52 54 60 45 19 7 7 8 8 5 9 8 4 5 8 5 6 4 11 10 12 11 8 11 4 15 21 28 21 23 19
23 22 20 20 19 15 16 27 19 22 31 54 32 20 7 12 61 48 12 17 16 6 27 9 7 7 4 6 3 6 2 7 8 8 5 11 30 34 31 24 22 18 10 10
21 21 16 20 19 16 18 24 19 18 15 10 20 20 38 25 22 65 54 58 21 27 15 12 5 9 3 5 8 7 7 5 12 5 23 36 23 33 31 25 22 8 10 7
18 17 16 20 17 15 19 25 21 24 18 10 34 68 2 19 34 39 58 68 50 19 3 6 6 7 6 7 5 3 11 9 8 10 35 19 28 35 20 17 14 19 33 25
14 15 16 16 13 14 12 7 7 11 17 10 9 22 22 13 29 42 52 60 44 12 4 12 11 6 4 1 3 9 12 10 14 8 27 23 27 29 27 25 28 34 27 25
12 14 14 14 14 16 17 8 2 9 16 7 13 15 15 16 13 28 38 42 28 12 10 18 25 36 10 2 6 6 15 15 7 38 50 40 47 38 41 40 41 35 29 25
10 10 9 11 15 21 30 22 26 19 11 8 6 9 13 20 5 13 23 27 40 28 19 25 13 12 2 5 15 20 11 5 21 44 31 38 45 41 49 48 46 45 41 35
8 8 8 13 10 10 4 4 17 25 13 6 6 6 7 11 14 7 13 22 6 19 12 30 17 6 8 13 14 12 18 7 9 45 33 53 69 55 54 60 59 56 54 43
7 9 6 6 7 6 1 6 12 15 10 12 10 11 7 9 7 10 11 8 4 7 11 20 9 10 36 43 34 30 22 21 13 26 29 61 67 68 73 72 65 68 54 48
10 5 6 10 5 10 5 7 12 12 8 15 17 32 12 7 5 5 7 5 6 2 8 11 8 12 27 52 53 51 41 32 20 10 25 57 61 76 71 72 75 60 53 55
7 5 8 8 7 8 6 7 8 9 8 14 9 19 35 9 7 8 6 3 5 6 15 4 6 7 37 54 63 64 65 44 28 14 9 47 58 54 61 70 72 60 53 56
5 6 5 5 7 6 8 8 7 6 6 15 19 6 20 8 6 9 5 6 7 8 5 6 7 8 24 30 51 58 67 59 45 29 23 18 18 33 60 56 57 63 66 62
3 4 7 7 7 8 6 4 6 14 16 28 15 2 10 5 5 4 5 8 5 6 6 9 6 19 15 30 38 52 70 69 62 55 44 45 30 18 50 63 62 64 67 66
5 5 7 9 20 28 25 12 11 17 15 14 10 2 11 4 1 6 3 3 7 8 8 6 18 8 10 13 6 27 50 54 47 50 48 42 42 28 39 70 63 60 63 66
7 11 9 24 14 17 11 11 1 6 10 5 12 6 3 5 5 6 10 5 8 6 7 9 9 3 4 19 25 22 13 22 42 44 43 45 51 45 32 72 68 63 62 68
9 15 26 40 33 27 28 16 11 20 8 6 4 2 6 4 2 6 4 3 7 21 10 4 2 9 4 10 10 13 12 10 2 19 23 44 58 48 45 66 76 73 71 68
Wind_Direction_500mb
322 325 325 329 332 339 341 346 348 118 153 93 161 209 224 274 292 300 294 268 235 270 273 225 175 118 135 127 114 93 33 130 157 231 275 251 193 198 147 131 244 166 149 267
327 327 330 336 340 345 348 333 293 12 208 254 269 297 282 267 277 274 264 285 292 288 292 276 123 109 84 112 96 145 162 19 42 347 354 5 31 23 176 129 101 191 141 249
329 329 333 338 342 343 344 338 345 333 356 46 62 5 310 323 319 294 287 265 277 278 262 215 167 125 144 111 114 117 93 90 142 184 202 192 319 311 320 114 110 176 207 177
326 328 332 338 341 340 343 337 299 12 336 334 331 347 279 329 357 349 330 292 345 319 226 197 144 131 99 45 127 81 103 177 189 206 224 269 249 291 311 209 210 157 230 183
318 323 329 338 344 347 20 3 1 335 303 320 334 306 278 311 349 328 343 343 327 318 232 199 188 140 133 165 228 124 57 226 161 269 289 305 311 348 321 83 111 123 118 59
316 323 329 333 339 347 318 307 297 299 284 314 332 281 327 315 13 314 340 315 313 311 271 258 209 179 170 165 148 150 140 135 99 248 7 0 13 231 69 63 51 82 101 226
303 315 324 328 330 334 331 324 326 302 277 295 279 313 305 304 344 298 310 312 287 297 319 282 178 158 146 145 172 145 136 132 128 183 45 28 244 44 96 110 57 351 64 239
306 308 312 320 323 322 320 265 258 290 279 297 300 328 326 322 329 312 304 294 308 312 307 51 56 1 98 192 155 166 143 124 115 135 165 278 187 249 162 139 277 306 102 186
292 300 303 307 313 312 313 234 230 264 307 252 307 332 299 299 321 321 285 320 329 334 93 49 131 166 174 176 134 175 86 85 126 116 141 199 231 203 184 104 278 246 142 184
286 286 289 295 301 305 307 281 211 251 266 278 275 290 311 310 317 287 310 337 330 353 57 41 126 188 162 158 152 153 85 42 146 140 181 294 232 183 163 139 239 192 199 207
285 285 284 286 290 297 300 283 220 260 262 277 288 267 250 274 250 186 304 349 3 310 51 37 274 133 187 98 164 156 158 135 173 90 105 246 178 143 194 179 150 195 211 225
277 279 283 277 279 285 297 294 229 266 278 260 272 277 262 253 245 278 210 242 313 301 353 31 316 14 60 145 182 350 87 169 178 160 207 216 151 147 243 203 169 188 209 205
275 270 283 275 271 272 272 288 295 286 286 297 272 299 344 274 236 222 242 249 243 355 17 14 292 321 153 122 254 93 351 131 110 94 234 112 138 130 131 145 147 168 178 221
274 265 279 276 266 267 270 275 276 271 282 275 287 257 287 263 228 218 234 231 251 307 320 258 212 260 358 176 162 120 200 4 138 90 89 94 121 142 143 145 139 132 172 160
270 252 268 276 259 271 276 275 262 256 251 288 290 305 130 205 216 208 220 231 241 266 280 251 221 289 22 310 87 145 179 186 149 211 175 143 174 157 162 189 205 179 155 141
264 242 268 263 257 268 280 291 218 193 237 288 293 309 298 221 202 235 209 216 220 194 320 315 283 318 351 42 167 225 94 237 252 187 155 150 154 154 153 130 134 158 123 149
243 248 258 254 249 253 232 236 211 200 238 278 291 292 301 324 224 199 206 205 200 213 242 257 263 289 321 240 188 261 40 354 194 150 135 128 153 158 152 139 137 142 152 163
241 254 237 258 261 254 258 261 248 247 238 250 279 278 293 11 152 164 194 181 193 182 204 259 243 258 213 255 224 84 108 313 193 174 173 157 156 156 147 152 148 151 156 156
244 219 238 274 254 242 279 234 224 221 220 273 263 285 272 346 14 57 174 171 163 198 189 226 223 221 210 232 217 63 32 27 238 207 180 165 165 168 167 164 162 162 166 159
204 203 236 252 240 227 343 163 162 200 219 231 246 252 272 339 20 28 15 359 214 186 227 200 182 228 223 246 268 274 304 303 235 257 178 173 170 171 173 177 179 177 171 169
183 201 242 310 327 163 240 223 197 189 232 223 238 217 221 244 125 117 187 232 325 273 262 157 222 243 220 240 251 240 255 267 262 243 212 183 175 181 182 186 186 188 181 182
210 254 275 253 233 225 254 218 187 205 237 205 214 218 194 183 150 100 27 67 354 261 327 248 242 261 224 226 237 250 242 247 242 229 167 196 189 188 189 190 190 192 194 186
188 242 259 226 211 223 226 227 222 227 319 14 8 323 166 130 111 91 130 163 211 307 268 256 241 229 213 239 239 240 243 243 233 241 240 231 229 221 203 199 200 198 199 194
240 233 277 221 218 234 200 317 304 316 310 341 327 288 44 115 102 146 156 223 128 239 225 238 241 262 307 304 264 246 237 233 239 243 243 246 248 274 218 205 206 203 198 198
254 234 245 233 251 290 311 210 328 331 314 318 333 236 158 79 176 202 239 229 241 223 242 241 247 269 318 6 288 247 235 224 223 222 226 237 242 260 230 207 207 205 203 200
244 234 256 261 279 291 324 302 297 326 300 214 296 302 17 219 190 157 219 224 223 246 221 261 294 305 196 52 81 95 126 223 226 225 229 235 240 246 244 213 210 203 202 200
239 246 245 260 282 277 291 292 289 307 292 211 165 98 229 299 259 236 193 10 275 314 79 105 282 3 230 235 166 134 79 70 187 209 241 243 237 244 243 218 209 208 202 201
Wind_Speed_850mb
38 37 35 37 42 44 44 21 7 13 26 7 5 5 9 16 33 51 17 11 16 14 13 15 12 5 6 13 13 8 5 12 1 9 10 7 14 17 12 10 11 4 9 10
32 29 29 32 37 44 48 36 14 8 19 4 6 13 13 23 28 25 9 15 24 22 17 5 9 14 3 27 10 10 1 4 6 18 14 14 10 5 3 6 7 10 11 9
28 26 26 29 32 35 37 15 7 13 8 17 3 11 12 15 30 23 26 20 30 22 12 5 10 12 6 27 24 24 15 6 12 12 12 5 10 17 7 9 6 8 10 10
28 25 24 25 28 29 26 6 6 14 7 13 14 6 9 19 23 21 27 13 14 25 11 6 11 7 12 15 24 10 11 9 10 12 11 4 9 13 13 7 11 11 5 11
25 23 24 24 25 22 10 10 10 15 23 25 15 6 8 17 26 12 10 23 43 31 13 17 17 17 10 11 5 8 4 3 8 4 8 8 6 12 12 9 8 10 9 2
23 21 23 23 22 20 6 6 14 7 12 11 8 6 14 31 19 20 28 37 33 18 11 28 41 43 45 31 20 11 13 10 6 4 6 6 7 6 5 6 11 3 5 10
23 21 22 25 23 19 13 7 10 7 8 5 6 26 40 15 11 14 41 46 14 18 57 15 17 29 33 40 10 28 13 13 7 6 9 5 13 6 9 11 7 10 2 8
25 24 21 22 23 21 16 7 3 8 7 13 23 19 20 28 26 17 35 29 51 67 38 7 10 10 9 5 17 13 13 11 5 9 9 7 2 3 3 5 5 7 7 5
28 26 23 23 22 22 17 7 8 13 10 11 7 18 28 9 8 11 13 59 53 21 4 4 8 7 12 7 12 8 12 11 10 6 9 10 14 7 11 7 6 3 8 15
33 30 24 23 21 22 21 9 13 9 13 31 12 5 12 16 8 5 16 29 32 34 6 5 4 5 9 11 16 10 7 6 12 6 5 8 8 17 15 5 11 16 12 16
32 26 23 22 21 20 22 9 19 17 16 58 51 32 28 24 15 5 17 20 10 12 8 5 3 4 6 8 7 14 12 11 6 7 6 8 20 9 8 10 11 19 17 22
27 25 22 22 20 18 16 20 18 25 25 37 42 52 54 60 45 19 7 7 8 8 5 9 8 4 5 8 5 6 4 11 10 12 11 8 11 4 15 21 28 21 23 19
23 22 20 20 19 15 16 27 19 22 31 54 32 20 7 12 61 48 12 17 16 6 27 9 7 7 4 6 3 6 2 7 8 8 5 11 30 34 31 24 22 18 10 10
21 21 16 20 19 16 18 24 19 18 15 10 20 20 38 25 22 65 54 58 21 27 15 12 5 9 3 5 8 7 7 5 12 5 23 36 23 33 31 25 22 8 10 7
18 17 16 20 17 15 19 25 21 24 18 10 34 68 2 19 34 39 58 68 50 19 3 6 6 7 6 7 5 3 11 9 8 10 35 19 28 35 20 17 14 19 33 25
14 15 16 16 13 14 12 7 7 11 17 10 9 22 22 13 29 42 52 60 44 12 4 12 11 6 4 1 3 9 12 10 14 8 27 23 27 29 27 25 28 34 27 25
12 14 14 14 14 16 17 8 2 9 16 7 13 15 15 16 13 28 38 42 28 12 10 18 25 36 10 2 6 6 15 15 7 38 50 40 47 38 41 40 41 35 29 25
10 10 9 11 15 21 30 22 26 19 11 8 6 9 13 20 5 13 23 27 40 28 19 25 13 12 2 5 15 20 11 5 21 44 31 38 45 41 49 48 46 45 41 35
8 8 8 13 10 10 4 4 17 25 13 6 6 6 7 11 14 7 13 22 6 19 12 30 17 6 8 13 14 12 18 7 9 45 33 53 69 55 54 60 59 56 54 43
7 9 6 6 7 6 1 6 12 15 10 12 10 11 7 9 7 10 11 8 4 7 11 20 9 10 36 43 34 30 22 21 13 26 29 61 67 68 73 72 65 68 54 48
10 5 6 10 5 10 5 7 12 12 8 15 17 32 12 7 5 5 7 5 6 2 8 11 8 12 27 52 53 51 41 32 20 10 25 57 61 76 71 72 75 60 53 55
7 5 8 8 7 8 6 7 8 9 8 14 9 19 35 9 7 8 6 3 5 6 15 4 6 7 37 54 63 64 65 44 28 14 9 47 58 54 61 70 72 60 53 56
5 6 5 5 7 6 8 8 7 6 6 15 19 6 20 8 6 9 5 6 7 8 5 6 7 8 24 30 51 58 67 59 45 29 23 18 18 33 60 56 57 63 66 62
3 4 7 7 7 8 6 4 6 14 16 28 15 2 10 5 5 4 5 8 5 6 6 9 6 19 15 30 38 52 70 69 62 55 44 45 30 18 50 63 62 64 67 66
5 5 7 9 20 28 25 12 11 17 15 14 10 2 11 4 1 6 3 3 7 8 8 6 18 8 10 13 6 27 50 54 47 50 48 42 42 28 39 70 63 60 63 66
7 11 9 24 14 17 11 11 1 6 10 5 12 6 3 5 5 6 10 5 8 6 7 9 9 3 4 19 25 22 13 22 42 44 43 45 51 45 32 72 68 63 62 68
9 15 26 40 33 27 28 16 11 20 8 6 4 2 6 4 2 6 4 3 7 21 10 4 2 9 4 10 10 13 12 10 2 19 23 44 58 48 45 66 76 73 71 68
Wind_Direction_850mb
322 325 325 329 332 339 341 346 348 118 153 93 161 209 224 274 292 300 294 268 235 270 273 225 175 118 135 127 114 93 33 130 157 231 275 251 193 198 147 131 244 166 149 267
327 327 330 336 340 345 348 333 293 12 208 254 269 297 282 267 277 274 264 285 292 288 292 276 123 109 84 112 96 145 162 19 42 347 354 5 31 23 176 129 101 191 141 249
329 329 333 338 342 343 344 338 345 333 356 46 62 5 310 323 319 294 287 265 277 278 262 215 167 125 144 111 114 117 93 90 142 184 202 192 319 311 320 114 110 176 207 177
326 328 332 338 341 340 343 337 299 12 336 334 331 347 279 329 357 349 330 292 345 319 226 197 144 131 99 45 127 81 103 177 189 206 224 269 249 291 311 209 210 157 230 183
318 323 329 338 344 347 20 3 1 335 303 320 334 306 278 311 349 328 343 343 327 318 232 199 188 140 133 165 228 124 57 226 161 269 289 305 311 348 321 83 111 123 118 59
316 323 329 333 339 347 318 307 297 299 284 314 332 281 327 315 13 314 340 315 313 311 271 258 209 179 170 165 148 150 140 135 99 248 7 0 13 231 69 63 51 82 101 226
303 315 324 328 330 334 331 324 326 302 277 295 279 313 305 304 344 298 310 312 287 297 319 282 178 158 146 145 172 145 136 132 128 183 45 28 244 44 96 110 57 351 64 239
306 308 312 320 323 322 320 265 258 290 279 297 300 328 326 322 329 312 304 294 308 312 307 51 56 1 98 192 155 166 143 124 115 135 165 278 187 249 162 139 277 306 102 186
292 300 303 307 313 312 313 234 230 264 307 252 307 332 299 299 321 321 285 320 329 334 93 49 131 166 174 176 134 175 86 85 126 116 141 199 231 203 184 104 278 246 142 184
286 286 289 295 301 305 307 281 211 251 266 278 275 290 311 310 317 287 310 337 330 353 57 41 126 188 162 158 152 153 85 42 146 140 181 294 232 183 163 139 239 192 199 207
285 285 284 286 290 297 300 283 220 260 262 277 288 267 250 274 250 186 304 349 3 310 51 37 274 133 187 98 164 156 158 135 173 90 105 246 178 143 194 179 150 195 211 225
277 279 283 277 279 285 297 294 229 266 278 260 272 277 262 253 245 278 210 242 313 301 353 31 316 14 60 145 182 350 87 169 178 160 207 216 151 147 243 203 169 188 209 205
275 270 283 275 271 272 272 288 295 286 286 297 272 299 344 274 236 222 242 249 243 355 17 14 292 321 153 122 254 93 351 131 110 94 234 112 138 130 131 145 147 168 178 221
274 265 279 276 266 267 270 275 276 271 282 275 287 257 287 263 228 218 234 231 251 307 320 258 212 260 358 176 162 120 200 4 138 90 89 94 121 142 143 145 139 132 172 160
270 252 268 276 259 271 276 275 262 256 251 288 290 305 130 205 216 208 220 231 241 266 280 251 221 289 22 310 87 145 179 186 149 211 175 143 174 157 162 189 205 179 155 141
264 242 268 263 257 268 280 291 218 193 237 288 293 309 298 221 202 235 209 216 220 194 320 315 283 318 351 42 167 225 94 237 252 187 155 150 154 154 153 130 134 158 123 149
243 248 258 254 249 253 232 236 211 200 238 278 291 292 301 324 224 199 206 205 200 213 242 257 263 289 321 240 188 261 40 354 194 150 135 128 153 158 152 139 137 142 152 163
241 254 237 258 261 254 258 261 248 247 238 250 279 278 293 11 152 164 194 181 193 182 204 259 243 258 213 255 224 84 108 313 193 174 173 157 156 156 147 152 148 151 156 156
244 219 238 274 254 242 279 234 224 221 220 273 263 285 272 346 14 57 174 171 163 198 189 226 223 221 210 232 217 63 32 27 238 207 180 165 165 168 167 164 162 162 166 159
204 203 236 252 240 227 343 163 162 200 219 231 246 252 272 339 20 28 15 359 214 186 227 200 182 228 223 246 268 274 304 303 235 257 178 173 170 171 173 177 179 177 171 169
183 201 242 310 327 163 240 223 197 189 232 223 238 217 221 244 125 117 187 232 325 273 262 157 222 243 220 240 251 240 255 267 262 243 212 183 175 181 182 186 186 188 181 182
210 254 275 253 233 225 254 218 187 205 237 205 214 218 194 183 150 100 27 67 354 261 327 248 242 261 224 226 237 250 242 247 242 229 167 196 189 188 189 190 190 192 194 186
188 242 259 226 211 223 226 227 222 227 319 14 8 323 166 130 111 91 130 163 211 307 268 256 241 229 213 239 239 240 243 243 233 241 240 231 229 221 203 199 200 198 199 194
240 233 277 221 218 234 200 317 304 316 310 341 327 288 44 115 102 146 156 223 128 239 225 238 241 262 307 304 264 246 237 233 239 243 243 246 248 274 218 205 206 203 198 198
254 234 245 233 251 290 311 210 328 331 314 318 333 236 158 79 176 202 239 229 241 223 242 241 247 269 318 6 288 247 235 224 223 222 226 237 242 260 230 207 207 205 203 200
244 234 256 261 279 291 324 302 297 326 300 214 296 302 17 219 190 157 219 224 223 246 221 261 294 305 196 52 81 95 126 223 226 225 229 235 240 246 244 213 210 203 202 200
239 246 245 260 282 277 291 292 289 307 292 211 165 98 229 299 259 236 193 10 275 314 79 105 282 3 230 235 166 134 79 70 187 209 241 243 237 244 243 218 209 208 202 201